Theta_e
300 300 300 300 300 300 300 300 300 301 302 302 302 303 303 303 303 310 312 310 309 305 305 309 312 313 321 323 325 327 329 330 329 327 326 326 326 325 327 328 332 334 336 337 338
300 300 300 300 300 300 300 301 302 302 303 303 303 303 303 304 305 313 311 307 307 307 310 312 313 314 319 323 326 329 331 330 329 328 327 326 325 325 326 328 332 334 334 336 340
300 300 300 300 300 300 300 302 303 303 303 303 303 304 305 304 314 315 310 306 306 304 310 311 313 315 316 321 323 327 331 330 329 328 328 327 325 324 326 329 331 334 334 335 340
300 300 300 300 300 300 301 302 302 302 303 302 303 305 304 311 315 310 308 308 308 308 310 312 314 314 317 319 322 326 326 328 329 328 328 328 324 325 325 326 326 333 334 333 334
300 300 300 300 300 300 301 302 302 302 302 302 304 306 310 314 310 309 308 311 311 311 311 310 312 316 318 318 319 324 325 325 326 327 328 328 326 326 325 325 326 329 332 332 331
300 300 300 300 300 300 300 302 302 302 302 303 305 306 315 315 309 310 310 311 311 311 312 311 311 313 316 318 319 319 322 323 324 325 326 328 329 328 327 325 326 325 326 329 330
301 300 300 300 300 300 301 302 302 302 303 304 306 306 314 311 309 310 311 311 311 311 311 312 311 311 313 318 316 318 320 320 322 323 325 326 327 328 327 328 327 326 326 327 328
301 301 300 300 300 301 301 302 302 302 303 305 306 312 315 309 309 309 309 309 310 310 311 311 311 311 311 311 314 317 319 320 321 321 322 323 327 327 326 328 328 328 329 329 331
300 301 301 301 301 301 302 303 303 303 304 305 311 315 314 309 309 308 308 309 309 310 310 311 311 311 312 312 312 314 318 320 319 320 321 322 325 325 325 326 328 329 329 329 330
298 300 301 301 301 302 304 307 308 307 308 312 312 312 313 310 309 308 308 309 309 310 311 311 313 314 314 313 313 314 315 317 318 320 321 321 323 324 324 325 326 327 328 329 329
302 298 301 302 301 303 305 312 313 315 312 310 311 311 309 309 308 309 309 309 310 311 313 313 314 315 315 315 315 314 314 315 317 319 320 320 322 323 323 323 324 326 328 328 328
308 301 301 302 301 304 310 311 310 310 311 310 310 309 309 309 309 309 308 309 310 311 312 312 313 313 314 314 313 313 313 314 315 316 320 321 321 322 323 324 323 324 325 327 328
307 304 303 304 302 309 309 310 309 310 312 312 310 309 310 308 309 309 309 308 310 311 311 312 312 312 312 312 312 312 312 313 314 316 318 320 321 322 322 322 322 322 323 324 325
307 304 305 303 308 309 312 310 310 310 314 313 310 310 308 309 311 309 308 308 310 310 310 311 311 311 311 311 312 313 313 312 313 314 315 318 322 322 323 323 323 323 323 323 323
307 304 303 302 311 312 311 310 309 311 318 311 310 309 309 310 310 310 308 308 310 310 310 310 311 311 312 312 313 312 313 312 312 313 314 315 318 320 322 323 323 324 323 323 323
307 305 303 307 311 311 310 310 311 317 316 311 310 310 311 311 311 310 309 309 309 310 311 312 312 313 312 312 313 313 312 312 313 313 314 315 317 318 320 321 323 324 323 323 323
307 305 305 309 313 310 310 311 316 316 312 311 311 311 312 312 311 311 311 311 310 310 310 311 312 313 313 315 314 313 312 311 312 312 314 315 318 318 320 320 321 323 322 322 323
307 306 308 311 311 311 311 314 315 312 311 311 311 312 312 311 311 310 311 310 309 311 312 312 314 312 311 315 315 314 312 311 311 311 312 314 315 318 320 321 321 320 320 320 322
307 312 312 313 311 310 311 315 314 312 310 310 311 312 312 311 310 310 311 310 309 309 312 312 312 311 312 314 312 314 313 314 314 313 314 313 314 317 318 320 321 321 321 322 324
307 312 314 311 311 310 314 314 312 310 309 311 312 312 312 311 312 311 311 310 310 310 310 310 311 311 312 313 313 313 315 316 315 313 312 313 315 317 317 319 321 322 324 324 324
311 311 312 308 308 311 315 312 309 308 308 311 312 312 311 311 312 311 311 311 311 310 310 310 311 311 311 313 314 314 314 315 316 315 315 313 317 317 320 319 320 322 322 323 328
309 314 311 307 311 313 313 308 306 309 310 311 311 311 312 311 311 311 311 311 311 310 310 311 312 312 311 312 313 311 311 313 315 314 317 316 316 317 321 324 321 322 321 322 331
308 309 310 308 315 313 311 310 308 309 310 310 310 310 311 311 311 313 312 310 310 311 311 313 312 314 312 311 314 314 314 314 315 315 318 319 320 319 322 322 321 321 320 320 324
307 311 310 308 309 310 312 311 309 308 309 309 310 310 311 312 311 311 311 311 310 310 310 310 313 313 313 311 312 313 313 313 316 317 316 316 315 314 317 320 320 320 319 318 321
308 310 308 310 310 310 310 311 310 309 309 308 309 310 309 311 311 311 311 311 311 310 311 311 313 312 312 312 311 311 311 311 311 312 313 313 312 314 316 317 319 318 316 318 320
306 306 305 306 309 308 309 311 311 309 310 309 309 310 309 310 310 311 310 312 313 311 312 311 315 313 313 312 312 311 311 311 311 311 311 311 311 313 314 314 315 316 316 316 320
303 304 304 305 309 309 308 308 308 307 308 308 309 309 311 311 310 310 310 311 312 311 311 313 312 313 314 312 312 313 312 311 311 311 311 311 312 313 314 315 316 315 315 316 318
Wind_Speed
10 10 9 9 10 10 10 10 9 10 11 11 11 12 13 14 12 11 8 10 12 12 14 10 13 15 17 25 28 23 17 19 25 23 20 14 13 22 19 21 19 14 15 12 25
11 11 10 11 11 10 9 8 8 10 12 13 13 13 14 15 10 2 6 2 2 5 4 10 16 17 23 22 29 24 18 29 24 21 16 18 16 22 23 15 22 16 2 5 16
12 12 11 11 10 9 7 8 9 11 12 13 14 15 15 10 4 3 6 13 12 9 9 10 14 20 28 28 29 30 28 26 27 29 23 16 21 23 24 16 24 18 15 11 19
14 12 12 11 10 9 8 8 10 11 13 16 17 17 12 4 2 2 11 12 10 9 7 10 14 21 23 26 31 28 38 35 36 37 27 15 20 25 28 26 26 26 23 19 14
15 14 13 12 11 10 10 11 12 13 13 15 13 11 3 5 6 8 11 13 11 7 7 10 15 18 23 25 28 32 30 37 38 32 32 31 22 28 29 31 28 28 14 16 17
15 14 13 12 11 10 10 11 13 14 15 14 10 7 6 8 4 8 10 10 8 9 9 9 13 16 24 25 27 31 33 38 37 35 36 29 31 27 38 30 33 35 34 26 29
17 16 14 13 12 11 10 11 13 16 16 9 6 3 8 4 5 7 9 10 10 9 11 10 11 16 13 17 30 31 27 28 28 31 34 34 27 27 41 37 34 37 36 32 32
18 18 17 15 13 12 11 12 15 15 9 6 4 2 7 2 5 8 11 11 9 12 13 13 13 18 22 25 33 21 21 26 35 28 32 26 37 36 41 38 38 39 38 35 38
20 18 18 16 13 11 8 12 13 12 4 5 1 4 6 3 4 11 11 11 13 13 12 13 14 17 17 16 18 21 25 28 31 29 29 29 36 32 43 43 38 41 42 39 40
22 20 18 17 13 10 10 8 9 7 3 4 6 8 7 5 11 13 10 12 13 12 14 14 16 13 14 13 20 21 25 28 30 28 25 31 36 32 39 36 36 40 41 39 42
25 23 20 17 12 8 11 10 4 6 9 14 11 10 10 9 11 12 9 10 8 13 14 11 13 14 17 16 20 22 26 32 30 24 24 30 29 34 32 36 32 36 35 45 43
27 25 21 15 8 4 8 6 4 7 12 14 14 12 10 9 12 10 7 12 15 14 15 14 16 16 17 20 20 22 25 28 27 29 23 22 26 33 26 29 35 35 39 39 32
27 26 19 11 4 3 2 2 5 10 8 2 5 8 6 6 13 16 9 15 15 16 16 16 17 19 19 16 18 20 22 24 27 24 26 26 28 32 30 33 33 36 40 41 41
28 25 15 4 2 3 2 6 9 8 6 8 7 4 6 9 14 6 13 12 14 17 17 17 17 16 16 20 20 22 20 22 21 21 21 26 23 26 26 27 27 34 37 36 35
26 21 12 4 1 4 5 9 8 2 4 4 4 2 7 11 12 9 8 14 17 19 18 19 20 22 23 22 18 22 22 22 23 22 24 29 21 24 24 25 26 26 36 40 38
23 14 4 4 1 3 7 8 2 6 0 4 3 6 12 15 10 14 12 14 22 20 19 21 13 22 20 23 21 23 18 24 21 20 21 28 26 24 23 26 22 19 25 23 27
21 8 3 3 3 7 7 6 6 6 6 2 5 12 15 14 11 9 12 14 14 12 16 19 20 9 17 16 22 17 18 13 16 17 19 22 24 23 23 28 27 26 30 32 20
21 5 5 4 5 7 6 10 4 5 7 10 10 16 16 3 6 9 15 12 10 6 12 11 16 8 8 15 17 16 18 14 21 15 17 22 25 21 26 27 16 22 20 21 17
14 5 4 5 5 7 12 8 3 8 7 10 13 11 10 10 9 14 8 9 6 10 6 12 10 19 15 10 13 16 17 16 20 24 18 18 28 28 29 23 18 19 15 12 13
16 5 5 5 6 7 10 10 8 1 9 10 13 7 14 15 15 12 11 4 8 10 8 14 19 16 14 9 13 14 14 4 14 23 24 17 23 17 30 28 17 16 6 3 10
8 7 2 2 5 11 6 9 8 6 10 7 10 13 16 13 13 16 9 14 5 10 16 17 15 18 17 14 15 8 12 15 9 10 14 18 10 13 25 30 21 7 5 6 5
8 4 1 4 8 5 6 6 8 7 6 7 10 13 12 13 17 17 18 13 11 14 17 22 11 14 21 16 17 2 11 10 9 8 19 16 19 21 25 26 27 12 6 9 9
12 8 2 4 3 7 10 11 7 9 9 4 7 12 12 17 9 13 17 19 13 16 6 9 6 9 15 16 15 7 12 9 12 8 19 8 7 18 16 17 12 10 12 18 13
7 4 3 3 2 7 10 10 7 5 9 8 9 13 15 15 15 12 19 22 12 12 20 14 14 17 16 22 9 6 19 14 17 10 15 16 17 19 27 3 9 9 11 16 15
4 5 6 5 7 11 10 14 10 10 3 8 9 10 12 12 20 20 19 23 24 20 11 5 12 19 21 24 24 20 19 14 19 21 20 19 17 12 18 21 23 12 15 17 11
8 6 12 17 10 5 8 10 15 8 15 16 15 15 13 16 18 25 22 23 15 7 5 7 9 15 20 22 23 23 21 18 21 26 23 22 22 16 18 23 22 18 17 14 13
8 6 6 11 9 6 4 8 12 14 12 13 18 18 19 19 24 29 32 34 24 6 3 5 8 10 17 19 14 16 19 19 18 23 22 21 19 17 15 16 16 18 18 14 16
Wind_Direction
359 353 348 345 343 340 340 344 346 345 345 342 339 335 329 321 309 320 280 241 239 274 245 260 254 243 237 235 232 230 248 247 250 254 264 264 269 246 256 246 248 229 248 310 167
353 349 345 344 347 348 348 348 349 352 349 341 340 340 338 332 325 267 257 271 12 343 314 266 251 235 231 232 232 229 239 241 248 255 254 259 251 262 242 227 253 216 255 240 165
348 344 342 342 344 344 342 339 343 350 350 348 345 340 335 329 301 56 295 320 310 299 290 269 251 246 235 232 226 231 240 248 251 252 264 258 252 257 262 232 225 212 199 204 191
345 340 337 336 337 336 332 329 335 341 339 338 339 343 353 65 3 266 330 7 1 8 302 264 250 243 243 238 234 235 241 248 255 269 280 256 263 271 267 250 249 220 197 189 187
341 336 331 330 329 326 324 323 329 336 338 334 338 349 9 232 50 329 335 336 345 321 289 268 262 256 247 245 246 243 246 248 253 255 259 263 241 256 255 255 242 250 210 201 212
345 337 329 324 322 318 313 312 319 326 330 330 336 341 337 260 333 333 324 332 319 307 305 282 266 265 278 267 250 253 250 253 254 253 251 247 252 254 253 247 252 244 253 236 237
352 343 332 323 320 316 310 309 314 318 324 324 330 275 290 38 338 330 337 324 311 296 287 284 286 269 266 255 255 263 266 266 257 248 247 249 254 241 250 252 244 248 239 241 244
352 345 337 329 325 319 316 313 312 311 317 322 308 270 281 251 340 342 330 319 309 301 284 278 284 277 268 263 278 278 260 250 244 242 247 242 249 245 249 252 248 246 249 239 237
348 344 337 332 324 320 318 319 317 316 290 324 123 234 243 256 333 330 320 314 310 302 289 276 280 277 267 247 254 247 250 246 255 243 241 234 247 247 251 252 252 241 244 244 244
346 344 336 333 327 327 331 340 328 329 330 321 259 251 233 310 317 328 316 308 303 301 290 250 265 250 243 236 246 254 244 248 253 258 242 232 241 245 245 249 246 256 259 242 240
346 342 336 329 325 334 353 327 295 222 238 284 302 281 290 307 313 316 314 307 287 286 273 279 268 252 268 273 271 275 272 276 277 273 246 251 244 245 246 240 250 253 243 239 249
344 341 336 325 317 346 25 359 2 327 298 278 259 258 270 292 298 322 301 303 305 295 298 278 256 260 260 267 277 277 275 270 273 271 277 275 267 266 251 246 241 246 253 255 251
343 341 340 330 318 6 332 359 336 323 271 220 227 239 253 277 300 300 288 299 286 289 289 281 292 300 291 267 264 265 263 272 278 283 272 261 255 261 255 253 249 246 250 252 251
341 341 342 353 84 322 202 328 328 309 272 129 197 183 240 290 273 297 288 278 284 289 294 286 287 273 279 273 270 267 271 276 274 264 260 253 262 254 249 250 250 247 244 247 251
340 342 342 181 349 315 305 321 309 272 269 102 152 32 271 279 295 287 313 287 280 293 294 287 293 281 274 274 263 268 276 277 268 268 257 255 256 257 250 244 240 240 245 245 244
342 343 42 76 5 312 329 316 314 232 321 163 275 260 294 304 293 288 275 274 265 260 263 272 311 291 286 287 267 272 273 267 260 261 254 249 251 251 246 250 265 259 253 250 246
341 329 202 158 321 317 319 282 246 281 121 105 322 311 310 294 330 311 308 296 290 311 299 314 300 322 295 298 251 247 253 262 252 245 252 249 257 256 258 248 256 250 250 244 248
343 305 237 238 298 313 313 259 286 336 326 358 310 304 282 333 301 291 290 300 341 4 306 315 308 333 357 300 310 255 243 251 268 264 267 239 242 254 252 259 247 293 275 261 247
356 338 247 253 282 314 282 262 305 5 358 323 307 312 317 326 339 298 302 325 328 326 312 308 303 308 302 270 304 277 255 249 262 276 291 264 270 273 240 247 241 243 228 222 237
342 290 222 272 282 295 262 269 295 350 309 303 301 283 317 324 322 317 326 324 301 290 304 295 298 304 294 253 271 249 329 261 231 253 258 258 261 268 212 237 218 219 160 275 269
342 275 140 306 284 256 273 313 330 337 308 293 309 304 299 307 305 311 293 299 305 321 314 295 294 294 280 265 273 224 218 248 181 255 272 258 293 255 210 208 222 216 81 303 298
336 271 24 346 253 221 266 8 317 288 278 268 287 294 302 318 305 297 290 294 302 316 310 299 301 279 279 271 222 243 294 271 245 273 273 267 272 301 284 168 188 86 39 351 36
319 290 328 346 315 327 311 315 275 287 302 296 289 303 311 295 307 296 304 307 330 316 323 339 272 292 284 257 27 1 278 253 262 220 257 270 281 305 99 104 83 63 5 343 359
316 294 158 23 258 293 332 310 321 318 285 324 298 307 287 291 285 284 287 290 320 298 302 314 270 261 270 283 162 220 237 214 220 253 271 265 275 308 309 33 135 70 349 329 343
343 36 354 308 333 327 317 294 293 300 301 289 279 263 308 309 308 297 303 310 304 301 250 255 260 272 274 279 286 288 285 272 271 270 270 277 282 243 277 291 311 344 332 330 339
349 345 337 293 304 330 300 312 314 336 335 308 294 315 311 284 284 294 298 294 293 284 227 207 261 271 275 276 272 270 269 269 264 271 275 281 282 272 256 276 292 297 303 308 322
339 309 320 300 286 289 313 304 317 323 300 308 321 308 298 299 304 297 290 283 279 225 225 264 254 276 276 277 284 276 264 252 258 260 269 272 278 285 281 276 284 288 283 286 287